Location: Dumpton Point
(51.3500°N, 1.4433°E)
Time: 01:28:42
(UTC+00:00)

A-11 Canister half - Visible Passes

Search period start: 24 May 2024 00:00
Search period end: 03 June 2024 00:00
Orbit: 1525 x 1683 km, 47.3° (Epoch: 22 May)

Date Brightness Start Highest point End Pass type
(mag) Time Alt. Az. Time Alt. Az. Time Alt. Az.
24 May 9.0 00:32:01 10° W 00:41:29 67° SSW 00:51:16 10° ESE visible
24 May 9.4 02:36:50 10° W 02:45:37 40° SW 02:54:39 10° SSE visible
24 May 9.0 22:05:51 10° WSW 22:15:08 65° SSE 22:24:44 10° E visible
25 May 9.0 00:10:17 10° W 00:19:44 67° S 00:29:31 10° ESE visible
25 May 9.4 02:15:05 10° W 02:23:54 42° SSW 02:32:59 10° SSE visible
25 May 9.0 21:44:08 10° WSW 21:53:24 64° SSE 22:02:58 10° E visible
25 May 9.0 23:48:33 10° W 23:57:59 68° S 00:07:45 10° ESE visible
26 May 9.3 01:53:19 10° W 02:02:11 43° SSW 02:11:20 10° SE visible
26 May 9.0 21:22:27 10° WSW 21:31:40 63° SSE 21:41:11 10° E visible
26 May 9.0 23:26:49 10° W 23:36:14 69° S 23:45:59 10° ESE visible
27 May 9.3 01:31:34 10° W 01:40:28 44° SSW 01:49:40 10° SE visible
27 May 9.0 21:00:45 10° WSW 21:09:56 62° SSE 21:19:24 10° E visible
27 May 9.0 23:05:05 10° W 23:14:29 69° S 23:24:12 10° ESE visible
28 May 9.2 01:09:48 10° W 01:18:45 46° SSW 01:27:59 10° SE visible
28 May 9.1 20:39:04 10° WSW 20:48:12 61° SSE 20:57:37 10° E visible
28 May 9.0 22:43:21 10° W 22:52:45 70° S 23:02:26 10° ESE visible
29 May 9.2 00:48:04 10° W 00:57:02 47° SSW 01:06:18 10° SE visible
29 May 10.1 02:54:07 10° W 03:00:16 19° SW 03:06:32 10° S visible
29 May 9.0 22:21:38 10° W 22:31:00 70° S 22:40:40 10° ESE visible
30 May 9.2 00:26:19 10° W 00:35:19 48° SSW 00:44:36 10° SE visible
30 May 10.0 02:32:13 10° W 02:38:36 20° SW 02:45:07 10° S visible
30 May 9.0 21:59:54 10° W 22:09:15 70° S 22:18:53 10° ESE visible
31 May 9.2 00:04:34 10° W 00:13:36 50° SSW 00:22:55 10° SE visible
31 May 10.0 02:10:20 10° W 02:16:56 21° SW 02:23:41 10° S visible
31 May 9.0 21:38:11 10° W 21:47:30 70° S 21:57:08 10° ESE visible
31 May 9.2 23:42:50 10° W 23:51:53 51° SSW 00:01:13 10° SE visible
01 Jun 10.0 01:48:28 10° W 01:55:16 22° SW 02:02:13 10° S visible
01 Jun 9.0 21:16:27 10° W 21:25:46 71° S 21:35:21 10° E visible
01 Jun 9.1 23:21:06 10° W 23:30:09 52° SSW 23:39:30 10° SE visible
02 Jun 9.9 01:26:37 10° W 01:33:36 23° SW 01:39:53 12° S visible
02 Jun 9.0 20:54:43 10° W 21:04:01 71° S 21:13:36 10° E visible
02 Jun 9.1 22:59:21 10° W 23:08:26 53° SSW 23:17:48 10° SE visible
